Zurück zum Katalog

STARLINK-11187

AktivKommunikationVLEO
NORAD 60184·PAYLOAD·🇺🇸 United States

Gestartet Jul 3, 2024 von Cape Canaveral Space Force Station

Loading…

Nächste Überflüge (nächste 24 Stunden)

TLE

AktuellSource: CelesTrak SupGP

Epoche: Sep 14, 2026, 22:16 UTC

1 60184C 24124B   26257.92826389 -.00045140  00000+0 -37186-3 0  2571
2 60184  53.1565 308.2393 0001082  93.6445  65.2701 15.69730690    14

Verfolge STARLINK-11187 in Echtzeit mit AllMySat

Download on the App Store